[[{"header":{"parameterUnit":"m.s-1","parameterCategory":1,"la1":30.2991,"la2":30.254,"lo1":-89.0895,"lo2":-89.0444,"dy":0.0017,"dx":0.0017,"nx":28,"ny":28,"refTime":"2023-10-21T03:00:00:Z","depth":0,"parameterNumber":2,"parameterNumberName":"U-component_of_WINDS"},"data":[0,0,0,0,0,0,0,0,0,0,0,0,0,0,0,0,0,0,0,0,0,0,0,0,0,0,0,0,0,0,0,0,0,0,0,0,0,0,0,0,0,0,0,0,0,0,0,0,0,0,0,0,0,0,0,0,0,0,3.6478,3.6478,0,3.6492,3.6492,3.6492,3.6435,3.6433,3.6431,3.6429,3.6446,3.6448,3.645,0,0,0,0,0,0,0,0,0,0,0,0,0,3.6406,3.6407,3.6478,3.6478,3.6478,3.6492,3.6492,3.6492,3.6435,3.6433,3.6431,3.6429,3.6445,3.6447,3.645,0,0,0,0,0,0,0,0,0,0,0,0,0,3.643,3.6408,3.6478,3.6451,3.6449,3.6492,3.6492,3.6492,3.6435,3.6433,3.643,3.6428,3.6444,3.6447,3.645,3.652,0,0,3.6459,3.6461,0,0,0,0,0,0,0,0,3.6429,3.6433,3.6455,3.6453,3.645,3.6459,3.6473,3.6502,3.6436,3.644,3.6429,3.6426,3.6452,3.6454,3.6463,3.6521,3.6521,3.646,3.6461,3.6463,3.6464,0,0,0,0,0,0,0,3.6427,3.6432,3.6483,3.6455,3.6453,3.644,3.6441,3.6478,3.6461,3.644,3.6436,3.6438,3.6451,3.646,3.6463,3.6522,3.646,3.6462,3.6464,3.6465,3.6645,3.6648,0,0,0,0,0,0,3.6429,3.6431,3.6483,3.6484,3.6433,3.6443,3.6444,3.6459,3.646,3.6458,3.644,3.6435,3.6456,3.6459,3.6463,3.655,3.6463,3.6466,3.6467,3.6642,3.6646,3.6649,0,0,0,0,0,0,3.6427,3.6434,3.6482,3.6456,3.6462,3.6447,3.6464,3.646,3.647,3.646,3.6457,3.6453,3.6454,3.6459,3.6508,3.6549,3.6467,3.647,3.6639,3.6643,3.6647,3.6721,0,0,0,0,0,0,3.6425,3.6434,3.6458,3.6457,3.6463,3.6525,3.6467,3.6462,3.6475,3.6469,3.6471,3.6469,3.6452,3.6504,3.6511,3.6552,3.6472,3.6635,3.6641,3.6646,3.6715,3.6727,3.6738,0,0,0,0,0,3.6423,3.6478,3.646,3.6467,3.6494,3.6528,3.6531,3.651,3.6478,3.6505,3.65,3.6469,3.6543,3.6509,3.6517,3.656,3.6632,3.6639,3.6645,3.671,3.6725,3.6738,0,0,0,0,0,0,3.6483,3.6477,3.6457,3.6512,3.6521,3.6518,3.655,3.6526,3.6544,3.6538,3.6512,3.6513,3.6568,3.6568,3.653,3.6631,3.6582,3.6591,3.6629,3.6643,3.6655,3.6655,3.6475,0,0,0,0,0,3.6503,3.653,3.6523,3.6573,3.6578,3.6564,3.6578,3.6562,3.657,3.6573,3.6571,3.6581,3.6607,3.6625,3.6647,3.6714,3.6717,3.6748,3.676,3.6769,3.6778,3.6819,3.6834,3.6671,3.6671,3.667,0,0,3.6544,3.6544,3.6562,3.6585,3.659,3.6621,3.6567,3.6601,3.6625,3.6578,3.6626,3.6625,3.6635,3.6695,3.6721,3.6696,3.6824,3.6778,3.6785,3.6789,3.6827,3.6843,3.6857,3.6675,3.6674,3.6674,0,0,3.6635,3.6636,3.668,3.6687,3.6696,3.6687,3.6698,3.6699,3.6697,3.6744,3.6712,3.6741,3.6784,3.6794,3.6805,3.6907,3.6881,3.6915,3.6977,3.7017,3.703,3.7041,3.7082,3.7097,3.6923,3.6923,3.6923,0,3.6685,3.6729,3.6706,3.6744,3.6757,3.6718,3.6765,3.6772,3.6788,3.68,3.6772,3.683,3.6833,3.6898,3.6923,3.6932,3.6947,3.6915,3.703,3.7041,3.7051,3.709,3.7105,3.6927,3.6927,3.6926,3.6926,0,3.6793,3.6825,3.686,3.6878,3.6895,3.6937,3.6923,3.6943,3.6927,3.6921,3.6973,3.6976,3.7002,3.7015,3.6998,3.7079,3.7065,3.7034,3.6985,3.7072,3.7108,3.7122,3.6933,3.6932,3.6931,3.693,0,0,3.6921,3.6929,3.6943,3.6953,3.6962,3.6987,3.703,3.7055,3.7076,3.7089,3.7127,3.7167,3.7141,3.7153,3.7137,3.7172,3.7259,3.7138,3.7138,3.7164,3.7355,3.7381,3.7398,3.7242,3.7244,3.7246,3.7356,0,3.7014,3.7086,3.7069,3.7142,3.7174,3.7139,3.7177,3.7188,3.7185,3.7214,3.721,3.7242,3.7201,3.721,3.7243,3.7242,3.7298,3.7233,3.728,3.7282,3.7282,3.7416,3.7442,3.7545,3.7369,3.7371,3.7373,0,3.7132,3.7153,3.7229,3.7238,3.7251,3.7285,3.7311,3.7337,3.7351,3.7347,3.7364,3.7342,3.7388,3.7338,3.7403,3.7359,3.7378,3.7381,3.7384,3.739,3.7335,3.7429,3.7576,3.7593,3.7394,3.7393,3.7391,0,3.7224,3.727,3.7323,3.7332,3.7343,3.7369,3.7375,3.7386,3.7405,3.7427,3.744,3.7467,3.7483,3.7506,3.7494,3.7458,3.7563,3.751,3.7564,3.7565,3.7589,3.7589,3.7745,3.7596,3.7595,3.7595,3.7595,0,3.7331,3.7381,3.7365,3.7398,3.7454,3.7435,3.7491,3.7493,3.7505,3.754,3.751,3.7544,3.7525,3.7559,3.755,3.7608,3.7614,3.7615,3.7612,3.7619,3.762,3.7633,3.7627,3.7599,3.7598,3.7597,3.7597,0,3.7443,3.7434,3.7491,3.7498,3.7501,3.7543,3.755,3.7582,3.7578,3.7624,3.7633,3.7628,3.7667,3.7657,3.7698,3.7692,3.7767,3.7754,3.7763,3.7761,3.7817,3.7814,3.799,3.8015,3.7846,3.7847,3.7849,0,3.7514,3.7552,3.7564,3.7586,3.7595,3.7629,3.7649,3.7633,3.7655,3.7677,3.7708,3.7744,3.7772,3.7836,3.7837,3.787,3.786,3.7919,3.7864,3.7872,3.7866,3.7865,3.7871,3.7931,3.7933,3.7935,3.7936,0,3.7643,3.7638,3.7667,3.7697,3.7722,3.7745,3.7764,3.7784,3.777,3.7797,3.7837,3.7859,3.7903,3.7941,3.7972,3.798,3.7958,3.7953,3.7968,3.7977,3.7983,3.7985,3.7797,3.795,3.7948,3.7947,3.7946,3.7946,3.7739,3.7773,3.7789,3.7824,3.7838,3.7859,3.7892,3.7894,3.7926,3.7961,3.795,3.7997,3.8015,3.8055,3.8067,3.8105,3.8083,3.8103,3.8109,3.8115,3.8124,3.7975,3.811,3.8109,3.8109,3.8109,3.8108,0,3.787,3.7879,3.7912,3.7943,3.7972,3.7948,3.797,3.7997,3.8038,3.8056,3.8086,3.8135,3.8172,3.8178,3.8215,3.8244,3.8236,3.8255,3.8254,3.8258,3.814,3.8125,3.8262,3.8262,3.8262,3.8262,3.8262,3.8262,3.7942,3.8,3.7998,3.8065,3.8074,3.812,3.8135,3.8156,3.8171,3.8227,3.8258,3.8262,3.8277,3.8315,3.835,3.8351,3.8368,3.8393,3.839,3.828,3.8265,3.8251,3.8237,3.8395,3.8396,3.8505,3.8506,3.8507]},{"header":{"parameterUnit":"m.s-1","parameterCategory":1,"la1":30.2991,"la2":30.254,"lo1":-89.0895,"lo2":-89.0444,"dy":0.0017,"dx":0.0017,"nx":28,"ny":28,"refTime":"2023-10-21T03:00:00:Z","depth":0,"parameterNumber":3,"parameterNumberName":"V-component_of_WINDS"},"data":[0,0,0,0,0,0,0,0,0,0,0,0,0,0,0,0,0,0,0,0,0,0,0,0,0,0,0,0,0,0,0,0,0,0,0,0,0,0,0,0,0,0,0,0,0,0,0,0,0,0,0,0,0,0,0,0,0,0,1.973,1.9733,0,1.9977,1.998,1.9983,1.9982,1.9979,1.9976,1.9972,2.023,2.0239,2.0249,0,0,0,0,0,0,0,0,0,0,0,0,0,1.9258,1.9267,1.973,1.9733,1.9736,1.9977,1.998,1.9983,1.9983,1.9979,1.9975,1.9971,2.0226,2.0238,2.025,0,0,0,0,0,0,0,0,0,0,0,0,0,1.948,1.927,1.9729,1.9764,1.977,1.9976,1.998,1.9984,1.9983,1.9979,1.9974,1.9969,2.0222,2.0237,2.0251,2.044,0,0,2.0297,2.0303,0,0,0,0,0,0,0,0,1.9468,1.9497,1.9756,1.9762,1.9769,1.9944,1.9908,2.0137,1.9985,1.9903,1.9972,1.9967,2.0139,2.016,2.0217,2.0452,2.0463,2.0298,2.0307,2.0313,2.0317,0,0,0,0,0,0,0,1.9452,1.9487,1.9828,1.976,1.9768,1.9768,1.9794,1.9951,2.0045,1.9909,1.991,1.9939,2.0141,2.0203,2.0223,2.0467,2.0297,2.0311,2.032,2.0326,2.0864,2.087,0,0,0,0,0,0,1.9429,1.9474,1.982,1.9835,1.9603,1.9781,1.981,1.9893,2.0043,2.0061,1.9943,1.9938,2.018,2.0206,2.0232,2.046,2.0313,2.0327,2.0335,2.0859,2.0866,2.0871,0,0,0,0,0,0,1.9419,1.946,1.981,1.9655,1.9699,1.9794,1.9887,1.99,1.9962,2.0068,2.0085,1.9988,2.0177,2.0211,2.0387,2.0469,2.0334,2.0347,2.0853,2.0861,2.0869,2.0918,0,0,0,0,0,0,1.9406,1.9456,1.9529,1.9656,1.9708,1.996,1.9892,1.9908,1.9987,1.9983,2.0116,2.0133,2.0176,2.0365,2.0402,2.0487,2.0359,2.0846,2.0856,2.0866,2.091,2.0927,2.0942,0,0,0,0,0,1.9389,1.9535,1.9533,1.9574,1.98,1.9965,1.9994,2.004,1.9993,2.0067,2.0135,2.0129,2.0454,2.0383,2.0424,2.0515,2.0841,2.0853,2.0865,2.0903,2.0924,2.0942,0,0,0,0,0,0,1.9417,1.9552,1.9551,1.9743,1.9842,1.9965,2.0059,2.0061,2.0177,2.0169,2.0221,2.0251,2.0425,2.0488,2.0407,2.0703,2.0642,2.0663,2.0656,2.0677,2.0693,2.0673,2.0371,0,0,0,0,0,1.9445,1.9567,1.9679,1.9837,1.9887,1.9964,2.0038,2.0064,2.0169,2.0212,2.0293,2.0396,2.0521,2.0603,2.0724,2.0919,2.0946,2.1002,2.1017,2.103,2.1048,2.1152,2.1177,2.0912,2.0912,2.0911,0,0,1.9505,1.9594,1.9668,1.9845,1.9925,2.005,2.0,2.0135,2.0228,2.0233,2.0402,2.0465,2.0584,2.0769,2.0855,2.0827,2.1127,2.1046,2.1055,2.1066,2.1167,2.1192,2.1214,2.092,2.0918,2.0917,0,0,1.9677,1.9758,1.9896,1.9977,2.0098,2.0148,2.0181,2.0303,2.0344,2.0515,2.052,2.0631,2.0847,2.093,2.1001,2.1201,2.1199,2.1239,2.1323,2.1424,2.1445,2.1463,2.1532,2.1557,2.1256,2.1256,2.1257,0,1.9737,1.9924,1.9968,2.0103,2.0179,2.0187,2.0327,2.0404,2.0559,2.0611,2.0578,2.0845,2.0926,2.1129,2.1177,2.1235,2.1273,2.1224,2.1438,2.1457,2.1476,2.1542,2.1568,2.126,2.126,2.1259,2.1259,0,1.999,2.012,2.0218,2.0364,2.0452,2.0589,2.0653,2.0737,2.0755,2.0808,2.098,2.1077,2.1216,2.1267,2.1287,2.1472,2.145,2.1427,2.1366,2.1504,2.1567,2.1593,2.1266,2.1264,2.1263,2.1262,0,0,2.0188,2.0354,2.039,2.0455,2.0587,2.0689,2.0825,2.096,2.1029,2.1136,2.125,2.143,2.1408,2.1488,2.1517,2.1606,2.1755,2.1572,2.1575,2.16,2.1961,2.1976,2.2005,2.1754,2.1759,2.1764,2.195,0,2.0373,2.0614,2.0656,2.0867,2.0986,2.0994,2.1112,2.1206,2.1259,2.1368,2.1427,2.1553,2.1516,2.1564,2.1652,2.1718,2.1828,2.1705,2.186,2.1865,2.1828,2.2038,2.2056,2.2227,2.1975,2.198,2.1983,0,2.0621,2.073,2.0952,2.1065,2.1117,2.1223,2.1347,2.1452,2.1558,2.159,2.1677,2.1695,2.1836,2.1769,2.1963,2.1878,2.1944,2.1986,2.1994,2.2009,2.1931,2.2057,2.2284,2.2308,2.2023,2.2019,2.2017,0,2.0739,2.0942,2.1101,2.1157,2.1294,2.1367,2.1428,2.1529,2.1606,2.1715,2.1765,2.189,2.1959,2.2055,2.2105,2.2052,2.2294,2.2232,2.2324,2.2322,2.2374,2.2369,2.2612,2.2419,2.2419,2.2418,2.2418,0,2.094,2.1074,2.1155,2.1252,2.1403,2.145,2.1598,2.1657,2.1746,2.1855,2.187,2.1972,2.2033,2.2143,2.2184,2.2336,2.2368,2.2397,2.2405,2.2394,2.239,2.2437,2.2426,2.2425,2.2424,2.2423,2.2421,0,2.1097,2.1157,2.1329,2.1444,2.1475,2.1581,2.1679,2.1774,2.1825,2.1962,2.1997,2.2078,2.2208,2.2268,2.243,2.2456,2.2629,2.2631,2.2593,2.2595,2.2682,2.2672,2.2962,2.3001,2.2785,2.2787,2.2789,0,2.122,2.1324,2.1448,2.1521,2.1583,2.1701,2.1778,2.1828,2.1908,2.2035,2.2113,2.2243,2.235,2.2557,2.263,2.2753,2.2756,2.2849,2.2775,2.2759,2.2755,2.2747,2.2756,2.2862,2.2864,2.2866,2.2868,0,2.1431,2.1455,2.1566,2.1686,2.1778,2.1876,2.1972,2.2031,2.2096,2.2185,2.2317,2.2399,2.2562,2.269,2.2817,2.2879,2.2884,2.289,2.2917,2.2906,2.2878,2.2891,2.2627,2.2883,2.2882,2.2881,2.288,2.2879,2.1574,2.1665,2.1765,2.1888,2.1965,2.2053,2.2146,2.2208,2.2319,2.2454,2.2477,2.2617,2.2718,2.2888,2.2955,2.3064,2.3042,2.3082,2.3092,2.3101,2.3104,2.2862,2.3088,2.3087,2.3087,2.3087,2.3086,0,2.1783,2.1847,2.1959,2.2092,2.2187,2.2182,2.2288,2.2368,2.249,2.2583,2.2687,2.2837,2.296,2.3042,2.3167,2.3239,2.3244,2.327,2.3264,2.3277,2.3118,2.3081,2.3263,2.3263,2.3263,2.3263,2.3263,2.3263,2.1903,2.2055,2.209,2.2281,2.2345,2.248,2.254,2.2622,2.2696,2.2862,2.2964,2.3016,2.3105,2.3235,2.3347,2.3368,2.3412,2.3439,2.3458,2.3308,2.3289,2.3271,2.3236,2.3449,2.3449,2.3608,2.361,2.3611]}]]